Effective Sunday, March 17, 2024, the National Weather Service National Data Buoy Center will discontinue its Dial-A-Buoy Interactive Voice Response system. For more information, see Service Change Notice 24-06 (PDF).

Station MKGM4 - Muskegon CG Station, Muskegon, MI Image indicating link to RSS feed of recent meteorological observations for station MKGM4


Conditions at MKGM4 as of
(9:00 am EST)
1400 GMT on 02/23/2024:
     

Click on the graph icon in the table below to see a time series plot of the last five days of that observation.

5-day plot - Wind Direction Wind Direction (WDIR): N ( 10 deg true )
5-day plot - Wind Speed Wind Speed (WSPD): 9 kts
5-day plot - Wind Gust Wind Gust (GST): 11 kts
5-day plot - Atmospheric Pressure Atmospheric Pressure (PRES):29.67 in
5-day plot - Pressure Tendency Pressure Tendency (PTDY):+0.05 in ( Rising )
5-day plot - Air Temperature Air Temperature (ATMP): 38.5 °F
5-day plot - Dew Point Dew Point (DEWP): 30.7 °F
5-day plot - Wind Chill Wind Chill (CHILL): 31.6 °F
5-day plot -  Wind Speed, Wind Gust and Atmospheric Pressure Combined plot of Wind Speed, Gust, and Air Pressure
Previous observations
TIME
(EST)
5-day plot - Wind Direction
WDIR
 
5-day plot - Wind Speed
WSPD
kts
5-day plot - Wind Gust
GST
kts
5-day plot - Wave Height
WVHT
ft
5-day plot - Dominant Wave Period
DPD
sec
5-day plot - Average Wave Period
APD
sec
5-day plot - Mean Wave Direction
MWD
 
5-day plot - Atmospheric Pressure
PRES
in
5-day plot - Pressure Tendency
PTDY
in
5-day plot - Air Temperature
ATMP
°F
5-day plot - Water Temperature
WTMP
°F
5-day plot - Dew Point
DEWP
°F
5-day plot - Salinity
SAL
psu
5-day plot - Visibility
VIS
nmi
5-day plot - Tide (above MLLW)
TIDE
ft
2024-02-23 08:50 am N 9 13----29.67- 38.7- 30.9---
2024-02-23 08:40 amNNW 7 10----29.66- 38.8- 31.6---
2024-02-23 08:30 amNNW 9 11----29.66- 39.0- 32.2---
2024-02-23 08:20 amNNW 8 10----29.66- 38.5- 32.7---
2024-02-23 08:10 am NW 8 9----29.65- 38.1- 34.0---
2024-02-23 08:00 am NW 8 9----29.65+0.04 37.8- 34.5---
2024-02-23 07:50 am NW 9 10----29.65- 37.0- 34.9---
2024-02-23 07:40 am NW 9 9----29.64- 36.7- 34.7---
2024-02-23 07:30 am NW 8 9----29.64- 36.1- 34.7---
2024-02-23 07:20 am NW 9 9----29.64- 36.5- 34.7---
2024-02-23 07:10 am NW 10 10----29.63- 36.9- 35.1---
2024-02-23 07:00 am NW 11 11----29.63+0.03 36.9- 35.2---
2024-02-23 06:50 am NW 10 11----29.63- 36.7- 35.4---
2024-02-23 06:40 am NW 8 8----29.63- 36.1- 35.4---
2024-02-23 06:30 am NW 8 8----29.63- 36.1- 35.4---
2024-02-23 06:20 am NW 7 7----29.62- 36.3- 35.2---
2024-02-23 06:10 am NW 8 9----29.62- 36.5- 35.4---
2024-02-23 06:00 am NW 8 8----29.62+0.02 36.7- 35.6---
2024-02-23 05:50 am NW 9 9----29.62- 36.3- 35.6---
2024-02-23 05:40 am NW 10 10----29.62- 36.0- 35.2---
2024-02-23 05:30 am NW 10 11----29.62- 36.5- 35.4---
2024-02-23 05:20 am NW 11 11----29.62- 36.9- 35.4---
2024-02-23 05:10 am NW 9 10----29.62- 36.7- 35.2---
2024-02-23 05:00 am NW 10 10----29.61+0.02 36.5- 35.2---
2024-02-23 04:50 am NW 9 10----29.61- 36.5- 35.2---
2024-02-23 04:40 am NW 9 10----29.61- 36.3- 35.1---
2024-02-23 04:30 am NW 10 10----29.61- 36.7- 35.1---
2024-02-23 04:20 am NW 10 10----29.61- 36.9- 35.1---
2024-02-23 04:10 am NW 9 10----29.61- 36.9- 35.1---
2024-02-23 04:00 am NW 9 10----29.61+0.01 36.5- 34.9---
2024-02-23 03:50 am NW 9 10----29.61- 36.5- 34.7---
2024-02-23 03:40 am NW 8 9----29.61- 36.5- 34.7---
2024-02-23 03:30 amWNW 8 8----29.61- 36.7- 34.7---
2024-02-23 03:20 am NW 7 8----29.61- 37.2- 34.7---
2024-02-23 03:10 am NW 8 8----29.60- 39.0- 34.2---
2024-02-23 03:00 am NW 7 8----29.60-0.01 39.2- 34.2---
2024-02-23 02:50 amNNW 7 9----29.60- 39.0- 34.3---
2024-02-23 02:40 am NW 8 9----29.60- 38.8- 34.7---
2024-02-23 02:30 am NW 11 12----29.59- 39.9- 34.7---
2024-02-23 02:20 am NW 15 16----29.59- 40.1- 35.1---
2024-02-23 02:10 am NW 17 18----29.59- 41.0- 35.1---
2024-02-23 02:00 am NW 15 16----29.59-0.04 41.2- 35.1---
2024-02-23 01:50 am NW 15 16----29.59- 41.0- 35.1---
2024-02-23 01:40 am NW 15 16----29.59- 41.5- 35.2---
2024-02-23 01:30 am NW 13 14----29.59- 41.4- 35.1---
2024-02-23 01:20 amNNW 10 11----29.59- 41.9- 34.9---
2024-02-23 01:10 am NW 10 13----29.59- 43.3- 34.5---
2024-02-23 01:00 amWNW 9 14----29.59-0.06 43.0- 34.9---
2024-02-23 12:50 am W 4 6----29.60- 41.2- 35.6---
2024-02-23 12:40 amSSW 4 6----29.60- 39.9- 36.0---
2024-02-23 12:30 am S 7 8----29.60- 38.3- 36.1---
2024-02-23 12:20 am S 9 10----29.61- 37.6- 36.1---
2024-02-23 12:10 am S 9 10----29.61- 37.6- 36.1---
2024-02-23 12:00 amSSE 10 10----29.61-0.04 37.0- 35.8---
2024-02-22 11:50 pmSSE 12 12----29.60- 37.9- 35.8---
2024-02-22 11:40 pmSSE 15 15----29.61- 37.6- 35.8---
2024-02-22 11:30 pmSSE 12 13----29.62- 37.2- 35.6---
2024-02-22 11:20 pmSSE 13 14----29.62- 36.9- 35.6---
2024-02-22 11:10 pmSSE 12 13----29.62- 37.2- 35.2---
2024-02-22 11:00 pmSSE 14 15----29.62-0.03 37.8- 35.2---
2024-02-22 10:50 pmSSE 13 14----29.63- 37.4- 34.9---
2024-02-22 10:40 pmSSE 13 13----29.63- 37.0- 35.1---
2024-02-22 10:30 pmSSE 13 14----29.63- 36.9- 35.2---
2024-02-22 10:20 pmSSE 12 13----29.64- 37.2- 35.4---
2024-02-22 10:10 pmSSE 11 12----29.64- 36.7- 35.6---
2024-02-22 10:00 pmSSE 12 12----29.65-0.02 36.9- 35.6---
2024-02-22 09:50 pmSSE 11 11----29.65- 36.7- 35.6---
2024-02-22 09:40 pmSSE 10 11----29.65- 36.7- 35.6---
2024-02-22 09:30 pmSSE 9 10----29.65- 36.9- 36.0---
2024-02-22 09:20 pmSSE 9 9----29.65- 36.7- 36.0---
2024-02-22 09:10 pmSSE 9 9----29.65- 36.7- 35.8---
2024-02-22 09:00 pmSSE 8 9----29.65-0.01 36.3- 35.8---
2024-02-22 08:50 pmSSE 8 8----29.65- 36.1- 35.8---
2024-02-22 08:40 pmSSE 8 8----29.66- 36.5- 36.0---
2024-02-22 08:30 pmSSE 8 8----29.66- 37.4- 36.3---
2024-02-22 08:20 pmSSE 7 7----29.66- 37.4- 36.5---
2024-02-22 08:10 pmSSE 7 7----29.66- 37.4- 36.5---
2024-02-22 08:00 pmSSE 5 5----29.66+0.00 37.6- 36.9---
2024-02-22 07:50 pmSSE 5 5----29.66- 37.4- 36.9---
2024-02-22 07:40 pmSSE 5 5----29.66- 37.2- 36.7---
2024-02-22 07:30 pmSSE 5 5----29.67- 37.4- 36.9---
2024-02-22 07:20 pmSSE 4 5----29.67- 37.2- 36.9---
2024-02-22 07:10 pm S 4 4----29.67- 37.2- 37.0---
2024-02-22 07:00 pmSSW 2 2----29.67-0.01 37.4- 37.2---
2024-02-22 06:50 pmSSW 1 1----29.67- 37.4- 37.0---
2024-02-22 06:40 pmSSW 2 2----29.67- 37.2- 36.7---
2024-02-22 06:30 pmWSW 2 2----29.67- 38.5- 37.4---
2024-02-22 06:20 pm W 2 2----29.67- 38.5- 36.5---
2024-02-22 06:10 pm W 3 3----29.66- 39.9- 37.6---
2024-02-22 06:00 pmWNW 4 4----29.66-0.02 40.1- 37.6---
2024-02-22 05:50 pm NW 5 6----29.66- 41.2- 37.2---
2024-02-22 05:40 pm NW 7 7----29.66- 41.5- 37.4---
2024-02-22 05:30 pm NW 7 7----29.66- 39.9- 37.0---
2024-02-22 05:20 pm NW 8 8----29.67- 40.3- 36.7---
2024-02-22 05:10 pmWNW 8 9----29.66- 40.1- 36.3---
2024-02-22 05:00 pmWNW 9 9----29.66-0.04 40.8- 36.5---
2024-02-22 04:50 pmWNW 9 9----29.67- 40.6- 36.1---
2024-02-22 04:40 pmWNW 9 9----29.66- 41.4- 36.3---
2024-02-22 04:30 pmWNW 9 9----29.67- 41.5- 36.5---
2024-02-22 04:20 pmWNW 9 9----29.67- 41.0- 36.3---
2024-02-22 04:10 pmWNW 9 9----29.67- 40.5- 36.1---
2024-02-22 04:00 pm NW 9 9----29.68-0.04 39.9- 35.8---
2024-02-22 03:50 pm NW 10 11----29.67- 39.7- 35.6---
2024-02-22 03:40 pm NW 10 11----29.67- 40.1- 35.4---
2024-02-22 03:30 pm NW 10 10----29.68- 39.7- 35.4---
2024-02-22 03:20 pm NW 10 11----29.67- 40.1- 35.1---
2024-02-22 03:10 pm NW 11 11----29.68- 40.1- 34.7---
2024-02-22 03:00 pm NW 11 11----29.68-0.06 39.7- 34.3---
2024-02-22 02:50 pm NW 9 9----29.69- 39.6- 34.2---
2024-02-22 02:40 pm NW 11 11----29.69- 39.6- 34.2---
2024-02-22 02:30 pm NW 8 9----29.69- 40.3- 33.8---
2024-02-22 02:20 pm NW 10 10----29.70- 39.7- 33.8---
2024-02-22 02:10 pm NW 9 10----29.70- 39.6- 33.8---
2024-02-22 02:00 pm NW 9 10----29.70-0.05 39.0- 34.2---
2024-02-22 01:50 pm NW 11 12----29.71- 38.3- 34.2---
2024-02-22 01:40 pm NW 11 12----29.71- 37.9- 34.0---
2024-02-22 01:30 pm NW 13 14----29.71- 38.7- 33.8---
2024-02-22 01:20 pm NW 10 10----29.71- 40.3- 32.9---
2024-02-22 01:10 pm NW 9 10----29.71- 39.6- 33.3---
2024-02-22 01:00 pm NW 9 10----29.72-0.05 38.8- 34.0---
2024-02-22 12:50 pm NW 12 13----29.72- 39.9- 33.1---
2024-02-22 12:40 pm NW 11 12----29.72- 42.1- 32.2---
2024-02-22 12:30 pm NW 6 6----29.72- 43.3- 32.2---
2024-02-22 12:20 pm NW 10 10----29.74- 40.5- 32.7---
2024-02-22 12:10 pm NW 11 12----29.74- 39.0- 33.4---
2024-02-22 12:00 pm NW 12 12----29.75-0.02 38.3- 33.6---
2024-02-22 11:50 am NW 12 13----29.75- 38.3- 33.4---
2024-02-22 11:40 am NW 8 9----29.75- 39.4- 33.6---
2024-02-22 11:30 am NW 3 4----29.75- 41.9- 33.1---
2024-02-22 11:20 am- 0 1----29.75- 41.4- 33.3---
2024-02-22 11:10 am NE 3 5----29.75- 43.2- 32.9---
2024-02-22 11:00 am NE 5 7----29.75-0.02 42.4- 32.7---
2024-02-22 10:50 am NE 7 7----29.75- 41.5- 32.5---
2024-02-22 10:40 am NE 7 9----29.76- 41.0- 32.5---
2024-02-22 10:30 am NE 8 9----29.76- 39.6- 32.4---
2024-02-22 10:20 am NE 7 8----29.76- 39.0- 32.4---
2024-02-22 10:10 am NE 7 8----29.77- 37.9- 32.2---
2024-02-22 10:00 am NE 6 7----29.76-0.01 37.0- 31.8---
2024-02-22 09:50 amENE 5 6----29.77- 36.9- 31.8---
2024-02-22 09:40 amENE 7 7----29.77- 36.1- 31.5---
2024-02-22 09:30 amENE 6 8----29.77- 35.1- 31.5---
2024-02-22 09:20 amENE 6 8----29.77- 34.3- 31.3---
2024-02-22 09:10 amENE 6 8----29.77- 34.0- 31.1---
2024-02-22 09:00 amENE 8 9----29.77+0.00 34.5- 30.9---
2024-02-22 08:50 amENE 8 10----29.78- 34.2- 30.9---